Location: Albuquerque Trailhead
(34.7934°N, 106.3736°W)
Time: 00:42:14
(UTC+00:00)

CARTOSAT-1 - Pass Details

Date: 20 June 2021
Orbit: 616 x 619 km, 97.8° (Epoch: 01 August)

Event Time Altitude Azimuth Distance (km) Brightness Sun altitude
Exits shadow 04:29:15 56° 135° (SE) 734 3.5 -20.8°
Maximum altitude 04:30:01 71° 77° (ENE) 655 3.5 -20.9°
Drops below altitude 10° 04:34:19 10° 353° (N) 1,988 7.0 -21.4°
Sets 04:36:31 0° 351° (N) 2,898 8.0 -21.7°
